| time (UTC) | temp C | wind direction | speed KPH | gust KPH | rain 1hr cm | rain 24hr cm | rain mn cm | humidity % | barometer mb |
| 20260510180248 | 23 | 249 | 17.7 | 22.5 | 0.00 | 0.00 | 0.00 | 43 | 1020.2 |
| 20260510175744 | 23 | 353 | 0.0 | 4.8 | 0.00 | 0.00 | 0.00 | 40 | 1020.3 |
| 20260510175239 | 23 | 220 | 4.8 | 16.1 | 0.00 | 0.00 | 0.00 | 42 | 1020.4 |
| 20260510174737 | 23 | 268 | 0.0 | 0.0 | 0.00 | 0.00 | 0.00 | 46 | 1020.4 |
| 20260510174234 | 23 | 255 | 6.4 | 11.3 | 0.00 | 0.00 | 0.00 | 43 | 1020.6 |
| 20260510173730 | 23 | 233 | 0.0 | 9.7 | 0.00 | 0.00 | 0.00 | 45 | 1020.6 |
| 20260510173226 | 22 | 277 | 3.2 | 14.5 | 0.00 | 0.00 | 0.00 | 46 | 1021.0 |
| 20260510172721 | 22 | 83 | 0.0 | 4.8 | 0.00 | 0.00 | 0.00 | 50 | 1020.9 |
| 20260510172218 | 22 | 233 | 3.2 | 12.9 | 0.00 | 0.00 | 0.00 | 45 | 1020.9 |
| 20260510171715 | 23 | 186 | 0.0 | 3.2 | 0.00 | 0.00 | 0.00 | 45 | 1020.6 |
| 20260510171212 | 23 | 259 | 1.6 | 6.4 | 0.00 | 0.00 | 0.00 | 45 | 1020.9 |
| 20260510170709 | 23 | 265 | 0.0 | 11.3 | 0.00 | 0.00 | 0.00 | 47 | 1021.0 |
| 20260510170200 | 22 | 266 | 0.0 | 3.2 | 0.00 | 0.00 | 0.00 | 48 | 1020.9 |
| 20260510165656 | 21 | 253 | 9.7 | 12.9 | 0.00 | 0.00 | 0.00 | 49 | 1020.9 |
| 20260510165152 | 21 | 233 | 8.0 | 20.9 | 0.00 | 0.00 | 0.00 | 48 | 1021.0 |
| 20260510164650 | 22 | 229 | 9.7 | 20.9 | 0.00 | 0.00 | 0.00 | 47 | 1020.9 |
| 20260510164146 | 22 | 261 | 3.2 | 9.7 | 0.00 | 0.00 | 0.00 | 47 | 1021.1 |
| 20260510163641 | 22 | 239 | 6.4 | 14.5 | 0.00 | 0.00 | 0.00 | 48 | 1021.0 |
| 20260510163137 | 21 | 116 | 0.0 | 1.6 | 0.00 | 0.00 | 0.00 | 49 | 1021.0 |
| 20260510162637 | 21 | 245 | 3.2 | 12.9 | 0.00 | 0.00 | 0.00 | 47 | 1021.2 |
| 20260510162134 | 22 | 266 | 1.6 | 6.4 | 0.00 | 0.00 | 0.00 | 48 | 1021.1 |
| 20260510161630 | 21 | 247 | 6.4 | 11.3 | 0.00 | 0.00 | 0.00 | 49 | 1021.2 |
| 20260510161127 | 21 | 288 | 0.0 | 11.3 | 0.00 | 0.00 | 0.00 | 49 | 1021.2 |
| 20260510160624 | 21 | 139 | 0.0 | 11.3 | 0.00 | 0.00 | 0.00 | 48 | 1021.2 |
| 20260510160124 | 22 | 157 | 4.8 | 11.3 | 0.00 | 0.00 | 0.00 | 47 | 1021.2 |
| 20260510155620 | 22 | 231 | 8.0 | 17.7 | 0.00 | 0.00 | 0.00 | 47 | 1021.1 |
| 20260510155116 | 22 | 262 | 4.8 | 12.9 | 0.00 | 0.00 | 0.00 | 45 | 1021.0 |
| 20260510154612 | 22 | 268 | 3.2 | 12.9 | 0.00 | 0.00 | 0.00 | 48 | 1021.0 |
| 20260510154107 | 21 | 240 | 6.4 | 11.3 | 0.00 | 0.00 | 0.00 | 49 | 1021.0 |
| 20260510153603 | 22 | 265 | 17.7 | 22.5 | 0.00 | 0.00 | 0.00 | 46 | 1021.0 |
| 20260510153100 | 21 | 257 | 1.6 | 11.3 | 0.00 | 0.00 | 0.00 | 48 | 1021.1 |
| 20260510152556 | 21 | 241 | 6.4 | 16.1 | 0.00 | 0.00 | 0.00 | 47 | 1021.2 |
| 20260510152053 | 22 | 255 | 3.2 | 16.1 | 0.00 | 0.00 | 0.00 | 48 | 1021.1 |
| 20260510151549 | 22 | 256 | 4.8 | 6.4 | 0.00 | 0.00 | 0.00 | 46 | 1021.0 |
| 20260510151048 | 22 | 294 | 0.0 | 4.8 | 0.00 | 0.00 | 0.00 | 48 | 1021.1 |
| 20260510150542 | 21 | 244 | 4.8 | 9.7 | 0.00 | 0.00 | 0.00 | 47 | 1021.2 |
| 20260510150038 | 21 | 92 | 4.8 | 9.7 | 0.00 | 0.00 | 0.00 | 47 | 1021.1 |
| 20260510145535 | 21 | 270 | 9.7 | 16.1 | 0.00 | 0.00 | 0.00 | 47 | 1021.1 |
| 20260510145032 | 21 | 181 | 6.4 | 11.3 | 0.00 | 0.00 | 0.00 | 47 | 1020.9 |
| 20260510144528 | 21 | 281 | 9.7 | 14.5 | 0.00 | 0.00 | 0.00 | 48 | 1021.1 |
| 20260510144024 | 21 | 245 | 0.0 | 6.4 | 0.00 | 0.00 | 0.00 | 50 | 1021.1 |
| 20260510143520 | 21 | 119 | 0.0 | 17.7 | 0.00 | 0.00 | 0.00 | 50 | 1021.3 |
| 20260510143017 | 21 | 204 | 8.0 | 12.9 | 0.00 | 0.00 | 0.00 | 49 | 1021.1 |
| 20260510142513 | 21 | 314 | 3.2 | 12.9 | 0.00 | 0.00 | 0.00 | 51 | 1021.0 |
| 20260510142010 | 21 | 249 | 0.0 | 6.4 | 0.00 | 0.00 | 0.00 | 51 | 1020.9 |
| 20260510141507 | 21 | 229 | 0.0 | 6.4 | 0.00 | 0.00 | 0.00 | 50 | 1020.9 |
| 20260510141004 | 20 | 261 | 6.4 | 11.3 | 0.00 | 0.00 | 0.00 | 52 | 1021.0 |
| 20260510140500 | 20 | 198 | 3.2 | 17.7 | 0.00 | 0.00 | 0.00 | 53 | 1021.2 |
| 20260510135959 | 20 | 261 | 12.9 | 14.5 | 0.00 | 0.00 | 0.00 | 53 | 1020.9 |
| 20260510135455 | 20 | 126 | 0.0 | 4.8 | 0.00 | 0.00 | 0.00 | 55 | 1020.9 |
| 20260510134952 | 20 | 245 | 4.8 | 11.3 | 0.00 | 0.00 | 0.00 | 55 | 1020.8 |
| 20260510134449 | 20 | 265 | 1.6 | 16.1 | 0.00 | 0.00 | 0.00 | 56 | 1021.0 |
| 20260510133946 | 19 | 256 | 0.0 | 6.4 | 0.00 | 0.00 | 0.00 | 57 | 1021.0 |
| 20260510133442 | 19 | 263 | 9.7 | 14.5 | 0.00 | 0.00 | 0.00 | 57 | 1021.0 |
| 20260510132937 | 19 | 346 | 0.0 | 9.7 | 0.00 | 0.00 | 0.00 | 58 | 1020.9 |
| 20260510132435 | 19 | 266 | 0.0 | 4.8 | 0.00 | 0.00 | 0.00 | 59 | 1021.0 |
| 20260510131932 | 19 | 160 | 0.0 | 1.6 | 0.00 | 0.00 | 0.00 | 58 | 1021.2 |
| 20260510131430 | 19 | 246 | 0.0 | 3.2 | 0.00 | 0.00 | 0.00 | 59 | 1021.2 |
| 20260510130926 | 20 | 257 | 0.0 | 0.0 | 0.00 | 0.00 | 0.00 | 61 | 1021.1 |
| 20260510130423 | 20 | 101 | 0.0 | 0.0 | 0.00 | 0.00 | 0.00 | 61 | 1021.2 |
| 20260510125920 | 19 | 309 | 0.0 | 0.0 | 0.00 | 0.00 | 0.00 | 65 | 1021.0 |
| 20260510125416 | 18 | 297 | 0.0 | 0.0 | 0.00 | 0.00 | 0.00 | 66 | 1021.0 |
| 20260510124913 | 17 | 304 | 0.0 | 0.0 | 0.00 | 0.00 | 0.00 | 69 | 1021.1 |
| 20260510124404 | 17 | 76 | 0.0 | 0.0 | 0.00 | 0.00 | 0.00 | 72 | 1021.1 |
| 20260510123900 | 15 | 60 | 0.0 | 0.0 | 0.00 | 0.00 | 0.00 | 78 | 1021.1 |
| 20260510123355 | 15 | 48 | 0.0 | 0.0 | 0.00 | 0.00 | 0.00 | 78 | 1020.9 |
| 20260510122852 | 15 | 52 | 0.0 | 0.0 | 0.00 | 0.00 | 0.00 | 76 | 1020.9 |
| 20260510122347 | 16 | 40 | 0.0 | 0.0 | 0.00 | 0.00 | 0.00 | 74 | 1020.8 |
| 20260510121844 | 16 | 171 | 0.0 | 0.0 | 0.00 | 0.00 | 0.00 | 73 | 1020.9 |
| 20260510121342 | 16 | 171 | 0.0 | 0.0 | 0.00 | 0.00 | 0.00 | 74 | 1020.8 |
| 20260510120839 | 15 | 171 | 0.0 | 0.0 | 0.00 | 0.00 | 0.00 | 77 | 1020.9 |
| 20260510120336 | 15 | 171 | 0.0 | 0.0 | 0.00 | 0.00 | 0.00 | 82 | 1020.8 |
| 20260510115831 | 15 | 171 | 0.0 | 0.0 | 0.00 | 0.00 | 0.00 | 88 | 1020.4 |
| 20260510115329 | 14 | 171 | 0.0 | 0.0 | 0.00 | 0.00 | 0.00 | 94 | 1020.4 |
| 20260510114824 | 13 | 172 | 0.0 | 0.0 | 0.00 | 0.00 | 0.00 | 97 | 1020.5 |
| 20260510114322 | 12 | 172 | 0.0 | 0.0 | 0.00 | 0.00 | 0.00 | 98 | 1020.4 |
| 20260510113817 | 12 | 172 | 0.0 | 0.0 | 0.00 | 0.00 | 0.00 | 99 | 1020.3 |
| 20260510113314 | 11 | 172 | 0.0 | 0.0 | 0.00 | 0.00 | 0.00 | 99 | 1020.4 |
| 20260510112811 | 10 | 172 | 0.0 | 0.0 | 0.00 | 0.00 | 0.00 | 99 | 1020.4 |
| 20260510112308 | 8 | 172 | 0.0 | 0.0 | 0.00 | 0.00 | 0.00 | 99 | 1020.3 |
| 20260510111804 | 7 | 224 | 0.0 | 0.0 | 0.00 | 0.00 | 0.00 | 99 | 1020.3 |
| 20260510111301 | 7 | 224 | 0.0 | 0.0 | 0.00 | 0.00 | 0.00 | 99 | 1020.2 |
| 20260510110800 | 7 | 224 | 0.0 | 0.0 | 0.00 | 0.00 | 0.00 | 99 | 1020.3 |
| 20260510110258 | 6 | 224 | 0.0 | 0.0 | 0.00 | 0.00 | 0.00 | 99 | 1019.9 |
| 20260510105759 | 6 | 224 | 0.0 | 0.0 | 0.00 | 0.00 | 0.00 | 99 | 1020.0 |
| 20260510105253 | 6 | 224 | 0.0 | 0.0 | 0.00 | 0.00 | 0.00 | 99 | 1019.9 |
| 20260510104750 | 6 | 224 | 0.0 | 0.0 | 0.00 | 0.00 | 0.00 | 99 | 1019.8 |
| 20260510104248 | 5 | 224 | 0.0 | 0.0 | 0.00 | 0.00 | 0.00 | 99 | 1019.6 |
| 20260510103744 | 5 | 224 | 0.0 | 0.0 | 0.00 | 0.00 | 0.00 | 99 | 1019.6 |
| 20260510103240 | 5 | 224 | 0.0 | 0.0 | 0.00 | 0.00 | 0.00 | 98 | 1019.6 |
| 20260510102735 | 5 | 224 | 0.0 | 0.0 | 0.00 | 0.00 | 0.00 | 98 | 1019.5 |
| 20260510102230 | 5 | 224 | 0.0 | 0.0 | 0.00 | 0.00 | 0.00 | 98 | 1019.4 |
| 20260510101728 | 5 | 224 | 0.0 | 0.0 | 0.00 | 0.00 | 0.00 | 98 | 1019.0 |
| 20260510101227 | 5 | 224 | 0.0 | 0.0 | 0.00 | 0.00 | 0.00 | 98 | 1019.1 |
| 20260510100722 | 5 | 224 | 0.0 | 0.0 | 0.00 | 0.00 | 0.00 | 98 | 1019.4 |
| 20260510100221 | 5 | 224 | 0.0 | 0.0 | 0.00 | 0.00 | 0.00 | 98 | 1019.1 |
| 20260510095720 | 6 | 224 | 0.0 | 0.0 | 0.00 | 0.00 | 0.00 | 98 | 1019.3 |
| 20260510095216 | 6 | 224 | 0.0 | 0.0 | 0.00 | 0.00 | 0.00 | 98 | 1019.4 |
| 20260510094715 | 6 | 253 | 0.0 | 0.0 | 0.00 | 0.00 | 0.00 | 98 | 1019.1 |
| 20260510094211 | 6 | 264 | 0.0 | 0.0 | 0.00 | 0.00 | 0.00 | 98 | 1019.1 |
| 20260510093707 | 6 | 258 | 0.0 | 0.0 | 0.00 | 0.00 | 0.00 | 98 | 1019.1 |
| 20260510093204 | 6 | 212 | 0.0 | 0.0 | 0.00 | 0.00 | 0.00 | 98 | 1019.3 |
| 20260510092700 | 6 | 212 | 0.0 | 0.0 | 0.00 | 0.00 | 0.00 | 98 | 1019.3 |
| 20260510092156 | 6 | 261 | 0.0 | 0.0 | 0.00 | 0.00 | 0.00 | 98 | 1019.3 |
| 20260510091652 | 6 | 256 | 0.0 | 0.0 | 0.00 | 0.00 | 0.00 | 98 | 1019.3 |
| 20260510091148 | 6 | 259 | 0.0 | 0.0 | 0.00 | 0.00 | 0.00 | 98 | 1018.9 |
| 20260510090645 | 6 | 256 | 0.0 | 0.0 | 0.00 | 0.00 | 0.00 | 98 | 1019.0 |
| 20260510090142 | 6 | 257 | 0.0 | 0.0 | 0.00 | 0.00 | 0.00 | 98 | 1018.7 |
| 20260510085637 | 6 | 242 | 0.0 | 0.0 | 0.00 | 0.00 | 0.00 | 98 | 1018.8 |
| 20260510085132 | 6 | 255 | 0.0 | 0.0 | 0.00 | 0.00 | 0.00 | 98 | 1018.9 |
| 20260510084629 | 6 | 247 | 0.0 | 0.0 | 0.00 | 0.00 | 0.00 | 98 | 1018.7 |
| 20260510084126 | 5 | 194 | 0.0 | 0.0 | 0.00 | 0.00 | 0.00 | 98 | 1018.7 |
| 20260510083622 | 5 | 219 | 0.0 | 0.0 | 0.00 | 0.00 | 0.00 | 98 | 1018.8 |
| 20260510083119 | 5 | 233 | 0.0 | 0.0 | 0.00 | 0.00 | 0.00 | 98 | 1018.5 |
| 20260510082615 | 5 | 242 | 0.0 | 0.0 | 0.00 | 0.00 | 0.00 | 98 | 1018.5 |
| 20260510082111 | 5 | 242 | 0.0 | 0.0 | 0.00 | 0.00 | 0.00 | 98 | 1018.6 |
| 20260510081606 | 5 | 242 | 0.0 | 0.0 | 0.00 | 0.00 | 0.00 | 98 | 1018.5 |
| 20260510081102 | 5 | 242 | 0.0 | 0.0 | 0.00 | 0.00 | 0.00 | 98 | 1018.6 |
| 20260510080601 | 5 | 242 | 0.0 | 0.0 | 0.00 | 0.00 | 0.00 | 98 | 1018.6 |
| 20260510080058 | 5 | 256 | 0.0 | 0.0 | 0.00 | 0.00 | 0.00 | 98 | 1018.5 |
| 20260510075555 | 5 | 244 | 0.0 | 0.0 | 0.00 | 0.00 | 0.00 | 98 | 1018.4 |
| 20260510075052 | 5 | 248 | 0.0 | 0.0 | 0.00 | 0.00 | 0.00 | 98 | 1018.4 |
| 20260510074550 | 5 | 248 | 0.0 | 0.0 | 0.00 | 0.00 | 0.00 | 98 | 1018.3 |
| 20260510074045 | 5 | 247 | 0.0 | 0.0 | 0.00 | 0.00 | 0.00 | 98 | 1018.3 |
| 20260510073541 | 6 | 245 | 0.0 | 0.0 | 0.00 | 0.00 | 0.00 | 98 | 1018.2 |
| 20260510073039 | 6 | 243 | 0.0 | 0.0 | 0.00 | 0.00 | 0.00 | 98 | 1018.3 |
| 20260510072535 | 6 | 235 | 0.0 | 0.0 | 0.00 | 0.00 | 0.00 | 97 | 1018.3 |
| 20260510072031 | 5 | 209 | 0.0 | 0.0 | 0.00 | 0.00 | 0.00 | 97 | 1018.4 |
| 20260510071527 | 5 | 209 | 0.0 | 0.0 | 0.00 | 0.00 | 0.00 | 97 | 1018.2 |
| 20260510071026 | 5 | 208 | 0.0 | 0.0 | 0.00 | 0.00 | 0.00 | 97 | 1018.2 |
| 20260510070522 | 5 | 208 | 0.0 | 0.0 | 0.00 | 0.00 | 0.00 | 97 | 1018.3 |
| 20260510070019 | 5 | 208 | 0.0 | 0.0 | 0.00 | 0.00 | 0.00 | 97 | 1018.2 |
| 20260510065515 | 5 | 208 | 0.0 | 0.0 | 0.00 | 0.00 | 0.00 | 97 | 1018.4 |
| 20260510065011 | 5 | 208 | 0.0 | 0.0 | 0.00 | 0.00 | 0.00 | 97 | 1018.3 |
| 20260510064508 | 5 | 208 | 0.0 | 0.0 | 0.00 | 0.00 | 0.00 | 97 | 1018.3 |
| 20260510064005 | 5 | 208 | 0.0 | 0.0 | 0.00 | 0.00 | 0.00 | 97 | 1018.3 |
| 20260510063501 | 5 | 208 | 0.0 | 0.0 | 0.00 | 0.00 | 0.00 | 97 | 1018.3 |
| 20260510062959 | 5 | 208 | 0.0 | 0.0 | 0.00 | 0.00 | 0.00 | 97 | 1018.1 |
| 20260510062454 | 5 | 208 | 0.0 | 0.0 | 0.00 | 0.00 | 0.00 | 97 | 1018.1 |
| 20260510061949 | 6 | 208 | 0.0 | 0.0 | 0.00 | 0.00 | 0.00 | 97 | 1018.1 |
| 20260510061447 | 6 | 208 | 0.0 | 0.0 | 0.00 | 0.00 | 0.00 | 97 | 1018.2 |
| 20260510060943 | 6 | 208 | 0.0 | 0.0 | 0.00 | 0.00 | 0.00 | 97 | 1018.1 |
| 20260510060440 | 6 | 208 | 0.0 | 0.0 | 0.00 | 0.00 | 0.00 | 97 | 1018.3 |
| 20260510055936 | 6 | 208 | 0.0 | 0.0 | 0.00 | 0.00 | 0.00 | 97 | 1018.1 |
| 20260510055432 | 6 | 208 | 0.0 | 0.0 | 0.00 | 0.00 | 0.00 | 97 | 1018.3 |
| 20260510054930 | 6 | 209 | 0.0 | 0.0 | 0.00 | 0.00 | 0.00 | 96 | 1018.1 |
| 20260510054425 | 6 | 209 | 0.0 | 0.0 | 0.00 | 0.00 | 0.00 | 96 | 1018.2 |
| 20260510053921 | 6 | 209 | 0.0 | 0.0 | 0.00 | 0.00 | 0.00 | 96 | 1018.1 |
| 20260510053416 | 6 | 209 | 0.0 | 0.0 | 0.00 | 0.00 | 0.00 | 96 | 1018.2 |
| 20260510052913 | 6 | 209 | 0.0 | 0.0 | 0.00 | 0.00 | 0.00 | 96 | 1018.3 |
| 20260510052409 | 6 | 209 | 0.0 | 0.0 | 0.00 | 0.00 | 0.00 | 96 | 1018.2 |
| 20260510051905 | 7 | 209 | 0.0 | 0.0 | 0.00 | 0.00 | 0.00 | 96 | 1018.3 |
| 20260510051402 | 7 | 209 | 0.0 | 0.0 | 0.00 | 0.00 | 0.00 | 96 | 1018.2 |
| 20260510050858 | 7 | 254 | 0.0 | 0.0 | 0.00 | 0.00 | 0.00 | 96 | 1018.3 |
| 20260510050355 | 7 | 254 | 0.0 | 0.0 | 0.00 | 0.00 | 0.00 | 96 | 1018.2 |
| 20260510045852 | 7 | 269 | 0.0 | 1.6 | 0.00 | 0.00 | 0.00 | 96 | 1018.4 |
| 20260510045349 | 7 | 222 | 0.0 | 0.0 | 0.00 | 0.00 | 0.00 | 95 | 1018.4 |
| 20260510044846 | 7 | 244 | 0.0 | 0.0 | 0.00 | 0.00 | 0.00 | 95 | 1018.4 |
| 20260510044343 | 7 | 214 | 0.0 | 0.0 | 0.00 | 0.00 | 0.00 | 95 | 1018.4 |
| 20260510043839 | 7 | 214 | 0.0 | 0.0 | 0.00 | 0.00 | 0.00 | 95 | 1018.1 |
| 20260510043335 | 7 | 214 | 0.0 | 0.0 | 0.00 | 0.00 | 0.00 | 95 | 1018.1 |
| 20260510042833 | 7 | 214 | 0.0 | 0.0 | 0.00 | 0.00 | 0.00 | 95 | 1018.2 |
| 20260510042329 | 7 | 214 | 0.0 | 0.0 | 0.00 | 0.00 | 0.00 | 95 | 1018.0 |
| 20260510041825 | 7 | 214 | 0.0 | 0.0 | 0.00 | 0.00 | 0.00 | 95 | 1018.2 |
| 20260510041323 | 7 | 235 | 0.0 | 0.0 | 0.00 | 0.00 | 0.00 | 94 | 1018.3 |
| 20260510040820 | 7 | 229 | 0.0 | 0.0 | 0.00 | 0.00 | 0.00 | 94 | 1018.4 |
| 20260510040316 | 7 | 214 | 0.0 | 0.0 | 0.00 | 0.00 | 0.00 | 94 | 1018.1 |
| 20260510035812 | 7 | 214 | 0.0 | 0.0 | 0.00 | 0.00 | 0.00 | 94 | 1018.1 |
| 20260510035308 | 7 | 226 | 0.0 | 0.0 | 0.00 | 0.00 | 0.00 | 94 | 1018.0 |
| 20260510034804 | 8 | 226 | 0.0 | 0.0 | 0.00 | 0.00 | 0.00 | 93 | 1018.1 |
| 20260510034301 | 8 | 226 | 0.0 | 0.0 | 0.00 | 0.00 | 0.00 | 93 | 1018.0 |
| 20260510033758 | 8 | 233 | 0.0 | 0.0 | 0.00 | 0.00 | 0.00 | 93 | 1018.0 |
| 20260510033255 | 8 | 198 | 0.0 | 0.0 | 0.00 | 0.00 | 0.00 | 93 | 1018.1 |
| 20260510032751 | 8 | 198 | 0.0 | 0.0 | 0.00 | 0.00 | 0.00 | 92 | 1017.9 |
| 20260510032248 | 8 | 198 | 0.0 | 0.0 | 0.00 | 0.00 | 0.00 | 92 | 1018.0 |
| 20260510031743 | 8 | 198 | 0.0 | 0.0 | 0.00 | 0.00 | 0.00 | 92 | 1017.9 |
| 20260510031239 | 8 | 198 | 0.0 | 0.0 | 0.00 | 0.00 | 0.00 | 92 | 1017.9 |
| 20260510030739 | 8 | 198 | 0.0 | 0.0 | 0.00 | 0.00 | 0.00 | 91 | 1017.7 |
| 20260510030236 | 8 | 198 | 0.0 | 0.0 | 0.00 | 0.00 | 0.00 | 91 | 1017.7 |
| 20260510025733 | 9 | 198 | 0.0 | 0.0 | 0.00 | 0.00 | 0.00 | 91 | 1018.0 |
| 20260510025231 | 9 | 198 | 0.0 | 0.0 | 0.00 | 0.00 | 0.00 | 91 | 1017.9 |
| 20260510024728 | 9 | 198 | 0.0 | 0.0 | 0.00 | 0.00 | 0.00 | 91 | 1017.9 |
| 20260510024224 | 9 | 197 | 0.0 | 0.0 | 0.00 | 0.00 | 0.00 | 90 | 1018.0 |
| 20260510023720 | 9 | 185 | 0.0 | 0.0 | 0.00 | 0.00 | 0.00 | 90 | 1017.7 |
| 20260510023217 | 9 | 185 | 0.0 | 0.0 | 0.00 | 0.00 | 0.00 | 89 | 1018.0 |
| 20260510022713 | 10 | 185 | 0.0 | 0.0 | 0.00 | 0.00 | 0.00 | 89 | 1018.0 |
| 20260510022208 | 10 | 185 | 0.0 | 0.0 | 0.00 | 0.00 | 0.00 | 89 | 1017.7 |
| 20260510021703 | 10 | 185 | 0.0 | 0.0 | 0.00 | 0.00 | 0.00 | 88 | 1017.6 |
| 20260510021201 | 10 | 186 | 0.0 | 0.0 | 0.00 | 0.00 | 0.00 | 88 | 1017.3 |
| 20260510020655 | 10 | 245 | 0.0 | 0.0 | 0.00 | 0.00 | 0.00 | 86 | 1017.5 |
| 20260510020151 | 10 | 245 | 0.0 | 0.0 | 0.00 | 0.00 | 0.00 | 86 | 1017.3 |
| 20260510015647 | 10 | 245 | 0.0 | 0.0 | 0.00 | 0.00 | 0.00 | 85 | 1017.3 |
| 20260510015144 | 11 | 245 | 0.0 | 0.0 | 0.00 | 0.00 | 0.00 | 85 | 1017.0 |
| 20260510014644 | 11 | 243 | 0.0 | 0.0 | 0.00 | 0.00 | 0.00 | 85 | 1016.9 |
| 20260510014142 | 11 | 170 | 0.0 | 0.0 | 0.00 | 0.00 | 0.00 | 85 | 1017.0 |
| 20260510013636 | 11 | 170 | 0.0 | 0.0 | 0.00 | 0.00 | 0.00 | 84 | 1016.8 |
| 20260510013132 | 11 | 170 | 0.0 | 0.0 | 0.00 | 0.00 | 0.00 | 83 | 1016.8 |
| 20260510012632 | 11 | 170 | 0.0 | 0.0 | 0.00 | 0.00 | 0.00 | 83 | 1016.7 |
| 20260510012128 | 11 | 170 | 0.0 | 0.0 | 0.00 | 0.00 | 0.00 | 82 | 1016.5 |
| 20260510011623 | 11 | 170 | 0.0 | 0.0 | 0.00 | 0.00 | 0.00 | 81 | 1016.5 |
| 20260510011119 | 11 | 170 | 0.0 | 0.0 | 0.00 | 0.00 | 0.00 | 81 | 1016.4 |
| 20260510010615 | 12 | 170 | 0.0 | 0.0 | 0.00 | 0.00 | 0.00 | 80 | 1016.2 |
| 20260510010113 | 12 | 170 | 0.0 | 0.0 | 0.00 | 0.00 | 0.00 | 79 | 1016.2 |
| 20260510005608 | 12 | 170 | 0.0 | 0.0 | 0.00 | 0.00 | 0.00 | 79 | 1016.0 |
| 20260510005106 | 12 | 170 | 0.0 | 0.0 | 0.00 | 0.00 | 0.00 | 78 | 1016.0 |
| 20260510004604 | 12 | 170 | 0.0 | 0.0 | 0.00 | 0.00 | 0.00 | 76 | 1016.1 |
| 20260510004102 | 13 | 170 | 0.0 | 0.0 | 0.00 | 0.00 | 0.00 | 76 | 1016.1 |
| 20260510003558 | 13 | 170 | 0.0 | 0.0 | 0.00 | 0.00 | 0.00 | 75 | 1015.9 |
| 20260510003054 | 13 | 170 | 0.0 | 0.0 | 0.00 | 0.00 | 0.00 | 73 | 1016.0 |
| 20260510002554 | 13 | 170 | 0.0 | 0.0 | 0.00 | 0.00 | 0.00 | 72 | 1016.1 |
| 20260510002052 | 14 | 219 | 0.0 | 0.0 | 0.00 | 0.00 | 0.00 | 71 | 1015.9 |
| 20260510001549 | 14 | 247 | 0.0 | 0.0 | 0.00 | 0.00 | 0.00 | 70 | 1015.8 |
| 20260510001048 | 15 | 242 | 0.0 | 0.0 | 0.00 | 0.00 | 0.00 | 69 | 1015.8 |
| 20260510000548 | 15 | 233 | 0.0 | 0.0 | 0.00 | 0.00 | 0.00 | 67 | 1015.7 |
| 20260510000045 | 16 | 238 | 0.0 | 0.0 | 0.00 | 0.00 | 0.00 | 66 | 1015.7 |
| 20260509235541 | 16 | 261 | 0.0 | 0.0 | 0.00 | 0.00 | 0.00 | 63 | 1015.6 |
| 20260509235038 | 16 | 228 | 0.0 | 0.0 | 0.00 | 0.00 | 0.00 | 61 | 1015.5 |
| 20260509234534 | 17 | 254 | 0.0 | 0.0 | 0.00 | 0.00 | 0.00 | 59 | 1015.6 |
| 20260509234032 | 17 | 255 | 0.0 | 0.0 | 0.00 | 0.00 | 0.00 | 56 | 1015.4 |
| 20260509233529 | 17 | 250 | 0.0 | 0.0 | 0.00 | 0.00 | 0.00 | 56 | 1015.4 |
| 20260509233027 | 18 | 246 | 4.8 | 4.8 | 0.00 | 0.00 | 0.00 | 54 | 1015.3 |
| 20260509232523 | 19 | 256 | 0.0 | 3.2 | 0.00 | 0.00 | 0.00 | 51 | 1015.3 |
| 20260509232020 | 19 | 257 | 0.0 | 6.4 | 0.00 | 0.00 | 0.00 | 51 | 1015.4 |
| 20260509231516 | 19 | 249 | 0.0 | 0.0 | 0.00 | 0.00 | 0.00 | 50 | 1015.4 |
| 20260509231014 | 19 | 235 | 0.0 | 1.6 | 0.00 | 0.00 | 0.00 | 51 | 1015.1 |
| 20260509230511 | 19 | 279 | 0.0 | 6.4 | 0.00 | 0.00 | 0.00 | 52 | 1015.2 |
| 20260509230008 | 19 | 256 | 8.0 | 11.3 | 0.00 | 0.00 | 0.00 | 52 | 1015.1 |
| 20260509225503 | 18 | 253 | 0.0 | 3.2 | 0.00 | 0.00 | 0.00 | 53 | 1015.3 |
| 20260509224959 | 19 | 250 | 3.2 | 11.3 | 0.00 | 0.00 | 0.00 | 52 | 1015.1 |
| 20260509224454 | 18 | 254 | 1.6 | 9.7 | 0.00 | 0.00 | 0.00 | 53 | 1015.4 |
| 20260509223952 | 18 | 241 | 3.2 | 9.7 | 0.00 | 0.00 | 0.00 | 53 | 1015.2 |
| 20260509223448 | 20 | 231 | 0.0 | 12.9 | 0.00 | 0.00 | 0.00 | 51 | 1015.3 |
| 20260509222946 | 20 | 279 | 0.0 | 3.2 | 0.00 | 0.00 | 0.00 | 50 | 1015.4 |
| 20260509222441 | 20 | 246 | 0.0 | 4.8 | 0.00 | 0.00 | 0.00 | 49 | 1015.3 |
| 20260509221937 | 20 | 262 | 0.0 | 3.2 | 0.00 | 0.00 | 0.00 | 50 | 1015.3 |
| 20260509221434 | 20 | 265 | 0.0 | 11.3 | 0.00 | 0.00 | 0.00 | 50 | 1015.3 |
| 20260509220930 | 20 | 255 | 8.0 | 12.9 | 0.00 | 0.00 | 0.00 | 50 | 1015.3 |
| 20260509220426 | 20 | 260 | 3.2 | 12.9 | 0.00 | 0.00 | 0.00 | 49 | 1015.6 |
| 20260509215922 | 20 | 273 | 0.0 | 12.9 | 0.00 | 0.00 | 0.00 | 48 | 1015.4 |
| 20260509215418 | 21 | 316 | 0.0 | 3.2 | 0.00 | 0.00 | 0.00 | 49 | 1015.2 |
| 20260509214915 | 20 | 254 | 0.0 | 3.2 | 0.00 | 0.00 | 0.00 | 50 | 1015.3 |
| 20260509214413 | 20 | 235 | 0.0 | 11.3 | 0.00 | 0.00 | 0.00 | 50 | 1015.3 |
| 20260509213909 | 20 | 267 | 0.0 | 6.4 | 0.00 | 0.00 | 0.00 | 49 | 1015.4 |
| 20260509213405 | 19 | 235 | 4.8 | 4.8 | 0.00 | 0.00 | 0.00 | 51 | 1015.4 |
| 20260509212903 | 20 | 272 | 4.8 | 14.5 | 0.00 | 0.00 | 0.00 | 50 | 1015.4 |
| 20260509212400 | 20 | 262 | 0.0 | 1.6 | 0.00 | 0.00 | 0.00 | 49 | 1015.5 |
| 20260509211856 | 19 | 284 | 3.2 | 4.8 | 0.00 | 0.00 | 0.00 | 51 | 1015.2 |
| 20260509211352 | 19 | 282 | 4.8 | 11.3 | 0.00 | 0.00 | 0.00 | 50 | 1015.3 |
| 20260509210848 | 19 | 242 | 3.2 | 4.8 | 0.00 | 0.00 | 0.00 | 52 | 1015.3 |
| 20260509210346 | 19 | 335 | 8.0 | 16.1 | 0.00 | 0.00 | 0.00 | 51 | 1015.1 |
| 20260509205845 | 19 | 244 | 1.6 | 9.7 | 0.00 | 0.00 | 0.00 | 50 | 1015.1 |
| 20260509205340 | 19 | 174 | 3.2 | 9.7 | 0.00 | 0.00 | 0.00 | 51 | 1015.1 |
| 20260509204838 | 19 | 250 | 9.7 | 12.9 | 0.00 | 0.00 | 0.00 | 50 | 1015.0 |
| 20260509204333 | 19 | 162 | 1.6 | 3.2 | 0.00 | 0.00 | 0.00 | 51 | 1015.2 |
| 20260509203829 | 18 | 195 | 3.2 | 11.3 | 0.00 | 0.00 | 0.00 | 51 | 1014.8 |
| 20260509203326 | 18 | 256 | 6.4 | 16.1 | 0.00 | 0.00 | 0.00 | 50 | 1015.1 |
| 20260509202823 | 18 | 264 | 0.0 | 4.8 | 0.00 | 0.00 | 0.00 | 50 | 1015.2 |
| 20260509202319 | 18 | 293 | 0.0 | 6.4 | 0.00 | 0.00 | 0.00 | 49 | 1015.0 |
| 20260509201818 | 18 | 261 | 0.0 | 6.4 | 0.00 | 0.00 | 0.00 | 50 | 1014.8 |
| 20260509201316 | 18 | 260 | 6.4 | 12.9 | 0.00 | 0.00 | 0.00 | 50 | 1014.6 |
| 20260509200812 | 19 | 241 | 9.7 | 11.3 | 0.00 | 0.00 | 0.00 | 51 | 1014.7 |
| 20260509200307 | 19 | 159 | 0.0 | 6.4 | 0.00 | 0.00 | 0.00 | 52 | 1014.8 |
| 20260509195804 | 19 | 247 | 6.4 | 9.7 | 0.00 | 0.00 | 0.00 | 50 | 1014.6 |
| 20260509195259 | 19 | 247 | 0.0 | 1.6 | 0.00 | 0.00 | 0.00 | 51 | 1014.7 |
| 20260509194759 | 19 | 295 | 0.0 | 0.0 | 0.00 | 0.00 | 0.00 | 52 | 1014.6 |
| 20260509194255 | 19 | 265 | 1.6 | 3.2 | 0.00 | 0.00 | 0.00 | 51 | 1014.6 |
| 20260509193752 | 19 | 254 | 4.8 | 6.4 | 0.00 | 0.00 | 0.00 | 50 | 1014.8 |
| 20260509193247 | 19 | 9 | 0.0 | 9.7 | 0.00 | 0.00 | 0.00 | 52 | 1014.7 |
| 20260509192743 | 20 | 277 | 3.2 | 9.7 | 0.00 | 0.00 | 0.00 | 49 | 1014.7 |
| 20260509192243 | 19 | 309 | 0.0 | 4.8 | 0.00 | 0.00 | 0.00 | 50 | 1014.6 |
| 20260509191739 | 19 | 258 | 4.8 | 9.7 | 0.00 | 0.00 | 0.00 | 50 | 1014.8 |
| 20260509191236 | 19 | 289 | 1.6 | 11.3 | 0.00 | 0.00 | 0.00 | 49 | 1014.8 |
| 20260509190732 | 20 | 343 | 0.0 | 4.8 | 0.00 | 0.00 | 0.00 | 47 | 1014.8 |
| 20260509190229 | 19 | 279 | 0.0 | 1.6 | 0.00 | 0.00 | 0.00 | 47 | 1014.5 |
| 20260509185726 | 19 | 257 | 0.0 | 0.0 | 0.00 | 0.00 | 0.00 | 47 | 1014.3 |
| 20260509185223 | 19 | 245 | 8.0 | 11.3 | 0.00 | 0.00 | 0.00 | 45 | 1014.6 |
| 20260509184720 | 19 | 287 | 0.0 | 3.2 | 0.00 | 0.00 | 0.00 | 46 | 1014.5 |
| 20260509184217 | 20 | 251 | 12.9 | 16.1 | 0.00 | 0.00 | 0.00 | 43 | 1014.5 |
| 20260509183713 | 21 | 287 | 8.0 | 11.3 | 0.00 | 0.00 | 0.00 | 41 | 1014.5 |
| 20260509183209 | 21 | 135 | 3.2 | 9.7 | 0.00 | 0.00 | 0.00 | 45 | 1014.5 |
| 20260509182704 | 20 | 21 | 0.0 | 9.7 | 0.00 | 0.00 | 0.00 | 46 | 1014.7 |
| 20260509182202 | 20 | 253 | 3.2 | 16.1 | 0.00 | 0.00 | 0.00 | 45 | 1014.6 |
| 20260509181700 | 20 | 77 | 1.6 | 6.4 | 0.00 | 0.00 | 0.00 | 47 | 1014.8 |
| 20260509181157 | 20 | 245 | 12.9 | 17.7 | 0.00 | 0.00 | 0.00 | 44 | 1014.8 |
| 20260509180654 | 20 | 241 | 11.3 | 14.5 | 0.00 | 0.00 | 0.00 | 47 | 1014.7 |